EW4338 Weather Reports


time (UTC)temp
F
wind
direction
speed
knots
gust
knots
rain 1hr
in
rain 24hr
in
rain mn
in
humidity
%
barometer
mb
20260505052055 41 204 0.0 0.0 0.00 0.22 0.22 82 1014.6
20260505051554 41 204 0.0 0.0 0.00 0.22 0.22 81 1014.6
20260505051056 42 204 0.0 0.9 0.00 0.22 0.22 81 1014.5
20260505050553 42 204 0.0 3.5 0.00 0.22 0.22 81 1014.5
20260505041552 40 204 3.5 7.8 0.00 0.22 0.22 89 1014.7
20260505041052 40 204 3.5 9.6 0.00 0.22 0.22 89 1014.7
20260505040551 39 204 6.1 9.6 0.01 0.22 0.22 89 1014.7
20260505040050 39 188 7.8 9.6 0.01 0.22 0.22 89 1014.6
20260505035548 39 201 5.2 8.7 0.01 0.22 0.22 89 1014.5
20260505035049 40 200 4.3 8.7 0.01 0.22 0.22 89 1014.6
20260505034550 40 202 6.1 8.7 0.03 0.22 0.22 89 1014.5
20260505034048 40 206 7.0 8.7 0.05 0.22 0.22 89 1014.5
20260505033546 40 206 5.2 8.7 0.08 0.22 0.22 89 1014.6
20260505033045 40 204 7.0 8.7 0.10 0.22 0.22 89 1014.7
20260505032545 40 197 6.1 8.7 0.12 0.22 0.22 89 1014.6
20260505032043 40 200 6.1 8.7 0.15 0.22 0.22 89 1014.7
20260505031548 40 226 3.5 8.7 0.17 0.22 0.22 89 1014.7
20260505031042 40 191 4.3 8.7 0.19 0.22 0.22 89 1014.7
20260505030545 40 191 5.2 7.8 0.19 0.21 0.21 89 1014.6
20260505030042 40 192 4.3 7.8 0.19 0.21 0.21 88 1014.5
20260505025541 40 292 3.5 5.2 0.19 0.21 0.21 88 1014.4
20260505025039 40 292 0.0 6.1 0.19 0.20 0.20 87 1014.4
20260505024538 41 292 3.5 7.8 0.18 0.19 0.19 87 1014.4
20260505024037 41 292 4.3 9.6 0.16 0.17 0.17 86 1014.4
20260505023535 41 304 6.1 11.3 0.13 0.14 0.14 86 1014.4
20260505023036 42 293 6.1 11.3 0.10 0.11 0.11 85 1014.4
20260505022534 42 311 6.1 11.3 0.08 0.09 0.09 85 1014.2
20260505022032 43 300 6.1 11.3 0.06 0.07 0.07 84 1013.9
20260505021534 43 299 7.0 11.3 0.03 0.04 0.04 83 1013.8
20260505021028 44 292 6.1 10.4 0.02 0.03 0.03 82 1013.6
20260505020527 44 299 6.1 10.4 0.01 0.02 0.02 81 1013.5
20260505020030 44 296 6.1 9.6 0.01 0.02 0.02 80 1013.4
20260505015525 44 295 4.3 9.6 0.01 0.02 0.02 79 1013.4
20260505015024 45 302 4.3 9.6 0.00 0.01 0.01 78 1013.3
20260505014522 45 295 5.2 9.6 0.00 0.01 0.01 77 1013.2
20260505014020 45 285 3.5 9.6 0.00 0.01 0.01 76 1013.1
20260505013520 46 301 3.5 7.0 0.00 0.01 0.01 74 1013.0
20260505013023 46 336 3.5 7.0 0.00 0.01 0.01 74 1012.8
20260505012518 46 350 2.6 7.0 0.00 0.01 0.01 73 1012.8
20260505012016 47 21 0.9 6.1 0.00 0.01 0.01 72 1012.9
20260505011522 47 21 0.9 7.8 0.00 0.01 0.01 69 1012.7
20260505011014 48 34 3.5 7.8 0.00 0.01 0.01 67 1012.5
20260505010513 48 23 0.0 2.6 0.00 0.01 0.01 64 1012.7
20260505010023 48 23 0.9 4.3 0.00 0.01 0.01 62 1012.8
20260505005513 48 23 1.7 4.3 0.00 0.01 0.01 63 1012.7
20260505005013 48 23 0.0 5.2 0.00 0.01 0.01 63 1012.7
20260505004513 49 23 0.9 5.2 0.00 0.01 0.01 63 1012.7
20260505004012 49 23 0.9 4.3 0.00 0.01 0.01 62 1012.8
20260505003512 49 23 0.9 6.1 0.00 0.01 0.01 63 1012.7
20260505003012 49 23 3.5 7.0 0.00 0.01 0.01 63 1012.6
20260505002512 49 23 1.7 7.0 0.00 0.01 0.01 63 1012.5
20260505002012 49 23 0.9 5.2 0.00 0.01 0.01 62 1012.6
20260505001512 50 23 1.7 5.2 0.00 0.01 0.01 62 1012.6
20260505001111 50 23 0.0 4.3 0.00 0.01 0.01 62 1012.6
20260505000510 50 23 1.7 4.3 0.00 0.01 0.01 62 1012.5
20260505000016 49 23 0.9 3.5 0.00 0.01 0.01 64 1012.3
20260504235510 49 257 0.0 3.5 0.00 0.01 0.01 67 1012.3
20260504235010 49 178 0.0 3.5 0.00 0.01 0.01 70 1012.2
20260504234510 49 178 0.9 3.5 0.00 0.01 0.01 67 1012.3
20260504234010 49 178 0.9 3.5 0.00 0.01 0.01 69 1012.1
20260504233509 49 178 0.9 4.3 0.00 0.01 0.01 70 1012.2
20260504233009 49 178 2.6 4.3 0.01 0.01 0.01 70 1012.3
20260504232510 49 102 0.9 2.6 0.01 0.01 0.01 70 1012.3
20260504232009 49 102 0.0 2.6 0.01 0.01 0.01 70 1012.1
20260504231509 49 102 0.9 2.6 0.01 0.01 0.01 70 1012.2
20260504231010 49 102 0.0 2.6 0.01 0.01 0.01 69 1012.1
20260504230509 49 102 0.0 3.5 0.01 0.01 0.01 70 1011.9
20260504230009 49 102 0.9 5.2 0.01 0.01 0.01 72 1011.9
20260504225508 48 102 3.5 5.2 0.01 0.01 0.01 70 1011.8
20260504225008 48 200 0.9 2.6 0.01 0.01 0.01 74 1012.1
20260504224507 48 200 0.0 2.6 0.01 0.01 0.01 74 1012.1
20260504224007 48 200 0.0 1.7 0.01 0.01 0.01 73 1012.3
20260504223506 48 200 0.0 8.7 0.01 0.01 0.01 68 1012.4
20260504223005 49 200 4.3 13.9 0.00 0.00 0.00 64 1012.6
20260504222504 49 184 7.8 13.9 0.00 0.00 0.00 60 1012.8
20260504222002 51 230 8.7 13.0 0.00 0.00 0.00 57 1012.8
20260504221505 51 230 4.3 7.8 0.00 0.00 0.00 50 1012.7
20260504221001 51 250 3.5 9.6 0.00 0.00 0.00 50 1012.6
20260504220501 51 348 3.5 12.2 0.00 0.00 0.00 50 1012.1
20260504220001 52 358 5.2 13.9 0.00 0.00 0.00 49 1011.5
20260504215501 52 28 7.8 17.4 0.00 0.00 0.00 49 1010.8
20260504215102 52 7 7.0 17.4 0.00 0.00 0.00 49 1010.6
20260504214609 52 27 6.1 13.0 0.00 0.00 0.00 49 1010.4
20260504214100 52 25 4.3 16.5 0.00 0.00 0.00 49 1010.6
20260504213559 52 15 7.0 21.7 0.00 0.00 0.00 49 1010.5
20260504213112 52 19 9.6 21.7 0.00 0.00 0.00 48 1010.5
20260504212558 53 351 11.3 20.9 0.00 0.00 0.00 46 1010.7
20260504212058 53 4 10.4 20.9 0.00 0.00 0.00 45 1010.8
20260504211557 53 13 9.6 22.6 0.00 0.00 0.00 44 1010.8
20260504211057 53 344 11.3 22.6 0.00 0.00 0.00 44 1010.6
20260504210557 53 26 12.2 17.4 0.00 0.00 0.00 44 1010.6
20260504210057 54 31 10.4 21.7 0.00 0.00 0.00 42 1010.5
20260504205556 55 37 9.6 21.7 0.00 0.00 0.00 38 1010.5
20260504205054 56 5 9.6 19.1 0.00 0.00 0.00 37 1010.5
20260504204559 59 29 7.0 17.4 0.00 0.00 0.00 33 1010.4
20260504204053 61 17 6.1 17.4 0.00 0.00 0.00 31 1010.6
20260504203554 61 173 4.3 14.8 0.00 0.00 0.00 32 1010.6
20260504203153 61 240 7.0 14.8 0.00 0.00 0.00 32 1010.6
20260504202553 61 245 7.8 16.5 0.00 0.00 0.00 33 1010.5
20260504202053 61 230 10.4 17.4 0.00 0.00 0.00 32 1010.5
20260504201553 60 194 8.7 20.0 0.00 0.00 0.00 33 1010.5
20260504201052 59 202 11.3 20.9 0.00 0.00 0.00 33 1010.5
20260504200552 58 167 13.9 22.6 0.00 0.00 0.00 34 1010.7
20260504200053 58 215 13.9 22.6 0.00 0.00 0.00 36 1010.7
20260504195552 58 200 15.6 28.7 0.00 0.00 0.00 36 1010.6
20260504195053 58 202 22.6 28.7 0.00 0.00 0.00 36 1010.6
20260504194556 58 179 19.1 29.5 0.00 0.00 0.00 36 1010.6
20260504194051 58 189 21.7 29.5 0.00 0.00 0.00 36 1010.6
20260504193553 60 184 13.9 23.5 0.00 0.00 0.00 31 1010.7
20260504193050 60 225 13.0 22.6 0.00 0.00 0.00 28 1010.6
20260504192549 60 244 14.8 22.6 0.00 0.00 0.00 27 1010.5
20260504192050 60 230 14.8 20.9 0.00 0.00 0.00 29 1010.5
20260504191549 60 189 12.2 20.9 0.00 0.00 0.00 29 1010.6
20260504191049 60 235 14.8 20.9 0.00 0.00 0.00 27 1010.6
20260504190549 61 230 10.4 15.6 0.00 0.00 0.00 28 1010.7
20260504190048 61 254 3.5 9.6 0.00 0.00 0.00 29 1010.8
20260504185547 61 322 2.6 12.2 0.00 0.00 0.00 29 1010.9
20260504185046 61 240 8.7 13.0 0.00 0.00 0.00 29 1010.9
20260504184546 62 294 7.8 17.4 0.00 0.00 0.00 27 1011.0
20260504184046 63 290 7.0 17.4 0.00 0.00 0.00 27 1011.0
20260504183545 63 280 7.8 12.2 0.00 0.00 0.00 26 1011.1
20260504183045 63 297 6.1 13.9 0.00 0.00 0.00 28 1011.1
20260504182542 63 322 6.1 13.9 0.00 0.00 0.00 28 1011.2
20260504182042 61 300 5.2 13.9 0.00 0.00 0.00 30 1011.3
20260504181540 61 325 8.7 13.9 0.00 0.00 0.00 30 1011.5
20260504181039 60 270 7.0 13.9 0.00 0.00 0.00 32 1011.7
20260504180537 60 302 8.7 13.9 0.00 0.00 0.00 32 1011.8
20260504180045 60 226 6.1 13.9 0.00 0.00 0.00 32 1011.9
20260504175535 60 264 7.8 14.8 0.00 0.00 0.00 32 1012.0
20260504175035 59 269 8.7 15.6 0.00 0.00 0.00 33 1012.1
20260504174532 58 273 9.6 16.5 0.00 0.00 0.00 34 1012.3
20260504174032 58 287 10.4 14.8 0.00 0.00 0.00 34 1012.3
20260504173531 57 278 9.6 14.8 0.00 0.00 0.00 35 1012.3
20260504173032 57 283 8.7 13.9 0.00 0.00 0.00 35 1012.4
20260504172526 56 271 5.2 12.2 0.00 0.00 0.00 36 1012.5
20260504172025 56 323 7.0 13.9 0.00 0.00 0.00 36 1012.6
20260504171530 56 304 8.7 12.2 0.00 0.00 0.00 36 1012.7
20260504171022 55 275 7.8 14.8 0.00 0.00 0.00 36 1012.7
20260504170520 55 235 6.1 19.1 0.00 0.00 0.00 37 1012.7
20260504151000 54 240 7.8 14.8 0.00 0.00 0.00 34 1012.5
20260504150501 54 230 8.7 14.8 0.00 0.00 0.00 35 1012.5
20260504150111 54 175 7.0 13.9 0.00 0.00 0.00 34 1012.7
20260504141051 53 240 14.8 19.1 0.00 0.00 0.00 33 1012.5
20260504140550 53 247 13.9 18.2 0.00 0.00 0.00 32 1012.6
20260504130543 52 257 3.5 7.0 0.00 0.00 0.00 28 1012.8
20260504110527 53 246 11.3 14.8 0.00 0.00 0.00 26 1012.1
20260504100522 50 211 7.0 10.4 0.00 0.00 0.00 28 1012.4
20260504082005 50 235 2.6 4.3 0.00 0.00 0.00 29 1013.2
20260504081505 51 291 1.7 4.3 0.00 0.00 0.00 28 1013.2
20260504081008 51 291 0.0 8.7 0.00 0.00 0.00 28 1013.3
20260504080505 51 284 4.3 8.7 0.00 0.00 0.00 27 1013.3